Location: Unspecified
(0.0000°N, 0.0000°E)
Time: 22:32:50
(UTC+00:00)

X-37B - Pass Details

Date: 24 October 2020
Orbit: 382 x 392 km, 45.0° (Epoch: 15 October)

Event Time Altitude Azimuth Distance (km) Brightness Sun altitude
Rises 18:41:12 0° 294° (WNW) 2,252 5.4 -13.9°
Reaches altitude 10° 18:43:37 10° 276° (W) 1,399 4.6 -14.5°
Maximum altitude 18:45:59 19° 227° (SW) 975 3.4 -15.1°
Drops below altitude 10° 18:48:21 10° 178° (S) 1,399 3.5 -15.7°
Sets 18:50:47 0° 160° (SSE) 2,252 4.4 -16.3°
